Regional Weather Roundup
Issued by NWS

Home | Current Version | Previous Version | Text Only | Print | Product List | Glossary On
Versions: 1 2 3 4 5 6 7 8 9 10 11 12 13 14 15 16 17 18 19 20 21 22 23 24 25 26 27 28 29 30 31 32 33 34 35 36 37 38 39 40 41 42 43 44 45 46 47 48 49 50
000
ASUS43 KLSX 110257
RWRMO

WEATHER SUMMARY FOR MISSOURI
NATIONAL WEATHER SERVICE SPRINGFIELD MO
900 PM CST SAT DEC 10 2016

NOTE: "FAIR" INDICATES FEW OR NO CLOUDS BELOW 12,000 FEET WITH NO
       SIGNIFICANT WEATHER AND/OR OBSTRUCTIONS TO VISIBILITY.
       CURRENT SKY AND/OR WEATHER CONDITIONS ARE NOT AVAILABLE FOR
       CHILLICOTHE AND FARMINGTON.

MOZ001>031-035>038-043-044-053-054-110400-
...NORTHERN AND WESTERN MISSOURI...

CITY           SKY/WX    TMP DP  RH WIND       PRES   REMARKS
KANSAS CTY INT CLOUDY    36  19  50 SE12      30.00F WCI  28
LEE`S SUMMIT   CLOUDY    37  22  54 SE10      30.02F WCI  30
ST JOSEPH      CLOUDY    35  19  52 SE5       30.02F
CHILLICOTHE      N/A     33  19  56 SE10      30.08F WCI  25

$$
MOZ066>068-077>081-088>096-101>105-110400-
...SOUTHWEST MISSOURI...

CITY           SKY/WX    TMP DP  RH WIND       PRES   REMARKS
SPRINGFIELD    CLOUDY    36  19  50 S22G32    30.10F WCI  25
JOPLIN         CLOUDY    43  19  38 S10       30.06F
BRANSON        CLOUDY    36  19  51 SE14G20   30.16F WCI  27

$$
MOZ032>034-039>042-045>050-055>058-069>072-110400-
...CENTRAL MISSOURI...

CITY           SKY/WX    TMP DP  RH WIND       PRES   REMARKS
COLUMBIA       NOT AVBL
JEFFERSON CITY CLOUDY    36  16  44 SE13G18   30.15F WCI  27
ROLLA          CLOUDY    33  15  47 S20G25    30.14F WCI  21
SEDALIA        CLOUDY    38  18  44 S16G23    30.08F WCI  29
WARRENSBURG    CLOUDY    37  21  52 SE10      30.06F

$$
MOZ051-052-059>065-110400-
...EAST CENTRAL MISSOURI...

CITY           SKY/WX    TMP DP  RH WIND       PRES   REMARKS
ST LOUIS INTL  CLOUDY    36  17  46 S17       30.22F WCI  26

$$
MOZ072>076-082>087-097>100-106>115-110400-
...SOUTH CENTRAL AND SOUTHEAST MISSOURI...

CITY           SKY/WX    TMP DP  RH WIND       PRES   REMARKS
CAPE GIRARDEAU CLOUDY    36  20  52 S6        30.33F
POPLAR BLUFF   CLOUDY    35  26  69 CALM      30.32F
WEST PLAINS    CLOUDY    33  21  61 SE10G21   30.23F WCI  25

$$



USA.gov is the U.S. government's official web portal to all federal, state and local government web resources and services.